Regional Weather Roundup
Issued by NWS Wakefield, VA

Home | Current Version | Previous Version | Text Only | Print | Product List | Glossary On
Versions: 1 2 3 4 5 6 7 8 9 10 11 12 13 14 15 16 17 18 19 20 21 22 23 24 25 26 27 28 29 30 31 32 33 34 35 36 37 38 39 40 41 42 43 44 45 46 47 48 49 50
000
ASUS41 KAKQ 011310
RWRAKQ

REGIONAL WEATHER ROUNDUP
NATIONAL WEATHER SERVICE WAKEFIELD VA
900 AM EDT MON SEP 01 2014

Note: "fair" indicates few or no clouds below 12,000 feet with no
significant weather and/or obstructions to visibility. * = Denotes
station may not report precipitation (e.g., rain,snow,etc.),
thunder or fog.

VAZ042-051-052>054-056-011400-
NORTHERN VIRGINIA

CITY           SKY/WX    TMP DP  RH WIND       PRES   REMARKS
WASH NATIONAL  PTSUNNY   80  73  79 S3        30.03F
DULLES         PTSUNNY   76  72  87 S6        30.03F
FORT BELVOIR   PTSUNNY   76  74  92 VRB1      30.03F
QUANTICO       PTSUNNY   76  73  91 SW5       30.04S
FREDERICKSBRG* PTSUNNY   76  76 100 SW5       30.03S
STAFFORD*      PTSUNNY   76  76 100 CALM      30.07F
WARRENTON      PTSUNNY   80  77  92 SW6       30.03F
CULPEPER*      MOSUNNY  N/A N/A N/A CALM      30.04S
MANASSAS*      SUNNY     75  75 100 CALM      30.03F
LEESBURG*      PTSUNNY   75  75 100 CALM      30.04F
WINCHESTER     CLOUDY    77  72  83 SW5       30.04F
$$

VAZ048-049-060>072-079>083-011400-
CENTRAL AND SOUTH CENTRAL VIRGINIA...AND NORTH CENTRAL NORTH CAROLINA

CITY           SKY/WX    TMP DP  RH WIND       PRES   REMARKS
RICHMOND       CLOUDY    80  73  79 SW7       30.06F
CHESTERFIELD*  MOSUNNY  N/A N/A N/A SW5       30.07F
PETERSBURG*    MOSUNNY   79  73  81 SW6       30.08S
HANOVER        CLOUDY    78  73  84 SW7       30.07F
TAPPAHANNOCK*  LGT RAIN  79  73  81 S5        30.06F
CHARLOTTSVILLE MOSUNNY   75  72  90 S5        30.05F
ORANGE*        PTSUNNY   73  72  94 S3        30.06S
LOUISA*        PTSUNNY   75  72  88 S3        30.04F
FARMVILLE*     CLOUDY    77  75  94 SW7       30.05F
SOUTH HILL*      N/A     81  77  89 MISG      30.14F
ROANOKE RAPIDS MOSUNNY   75  73  94 SW5       30.10S
RALEIGH        PTSUNNY   77  72  84 SW5       30.12S
$$

VAZ088>098-011400-
SOUTHEAST VIRGINIA

CITY           SKY/WX    TMP DP  RH WIND       PRES   REMARKS
NORFOLK        MOSUNNY   81  73  76 SW12      30.07F
VIRGINIA BEACH PTSUNNY   81  74  79 SW13      30.07F
NORFOLK NAVAL  PTSUNNY   82  74  76 SW10      30.09F
WEST POINT*    MOSUNNY   82  73  74 SW7       30.08F
NEWPORT NEWS   MOSUNNY   83  74  74 SW10      30.07F
LANGLEY AFB    SUNNY     80  76  85 SW10      30.06F
FORT EUSTIS    SUNNY     80  80 100 S3        30.06F
WILLIAMSBURG*  MOSUNNY   82  75  78 SW8       30.08S
FRANKLIN*      MOSUNNY   79  73  83 SW6       30.09F
WAKEFIELD      SUNNY     80  73  79 VRB5      30.08F
$$

VAZ020-022-025-037-045-011400-
WESTERN AND SOUTHWEST VIRGINIA

CITY           SKY/WX    TMP DP  RH WIND       PRES   REMARKS
STAUNTON*      MOSUNNY   78  67  68 SW7       30.10S
HOT SPRINGS VA CLOUDY    65  64  95 W16       30.23S
LYNCHBURG      PTSUNNY   74  71  91 S5        30.11S
DANVILLE       PTSUNNY   76  71  85 SW3       30.10F
MARTINSVILLE   CLOUDY    76  73  90 CALM      30.15S
ROANOKE        PTSUNNY   77  68  73 W8        30.14R
BLACKSBURG     MOSUNNY   75  72  88 W3        30.19S
DUBLIN*        CLOUDY    74  70  88 S6        30.19S
MARION*        PTSUNNY  N/A N/A N/A SW7       30.23S
HILLSVILLE*    CLOUDY    69  64  86 W5        30.22S
RICHLANDS*     MOSUNNY   73  67  83 W6        30.21S
WISE*          CLOUDY    70  68  94 SW9       30.22S
ABINGDON*      SUNNY     73  72  98 W3        30.19F
$$

MDZ021>025-VAZ099-100-011400-
SOUTHERN MARYLAND AND THE DELMARVA PENINSULA

CITY           SKY/WX    TMP DP  RH WIND       PRES   REMARKS
PATUXENT RIVER CLOUDY    77  74  90 CALM      30.02F
BAY BRIDGE APT   N/A     77  75  94 CALM      30.02F
LEONARDTOWN    CLOUDY    75  72  88 CALM      30.04F
DOVER          CLOUDY    76  76 100 S6        30.02F
GEORGETOWN     LGT RAIN  79  74  84 S8        30.05S
EASTON         RAIN      77  77 100 S5        30.06F
CAMBRIDGE      CLOUDY    77  73  88 CALM      30.03F
SALISBURY      CLOUDY    81  75  82 W9        30.04F
OCEAN CITY     CLOUDY    81  75  82 W9        30.05S
WALLOPS ISLAND LGT RAIN  79  75  87 NW3       30.07S
ACCOMACK*      NOT AVBL
$$

NCZ012>017-030>032-011400-
EASTERN NORTH CAROLINA

CITY           SKY/WX    TMP DP  RH WIND       PRES   REMARKS
ELIZABETH CITY MOSUNNY   80  75  84 SW10      30.10F
AHOSKIE*       MOSUNNY   78  74  88 CALM      30.10F
EDENTON*       MOSUNNY   78  76  92 SW8       30.11S
CURRITUCK*     MOSUNNY   81  74  80 SW10      30.10F
KILL DEVIL HLS MOSUNNY   80  77  89 SW9       30.10S
MANTEO         PTSUNNY   80  76  88 W8        30.12S
CAPE HATTERAS  MOSUNNY   81  77  88 SW9G17    30.12S
GOLDSBORO      MOSUNNY   77  77  99 SW6       30.10F
WASHINGTON     SUNNY     79  75  87 SW6       30.12S
GREENVILLE     MOSUNNY   79  77  94 SW8       30.13S
NEW BERN       MOSUNNY   83  76  79 SW5       30.14S
WILMINGTON     SUNNY     82  76  81 W9        30.13S
$$

VAZ048-011400-
ELSEWHERE

CITY           SKY/WX    TMP DP  RH WIND       PRES   REMARKS
HARRISBURG PA  PTSUNNY   76  72  87 CALM      30.02S
BALTIMORE      PTSUNNY   76  73  91 CALM      30.03S
ANNAPOLIS      CLOUDY    78  72  81 CALM      30.02F
ANDREWS AFB    PTSUNNY   78  74  88 SW5       30.03S
WILMINGTON DE  CLOUDY    75  74  96 SW5       30.03F
PHILADELPHIA   CLOUDY    75  72  90 SW5       30.02F FOG
WILDWOOD NJ*   CLOUDY    79  72  78 SW8       30.05S
ATLANTIC CITY  PTSUNNY   76  73  91 SW6       30.03S
HENDERSON NC   SUNNY     76  72  85 SW6       30.11S
GREENSBORO     PTSUNNY   76  71  85 W6        30.12S
ROCKY MOUNT    PTSUNNY   78  74  87 SW8       30.11S
FAYETTEVILLE   MOSUNNY   80  73  79 SW7       30.11F
CHARLOTTE      MOSUNNY   76  70  82 W3        30.14S
$$

VAZ100-011400-
MARINE

STATION/POSITION TIME  TEMP    WIND        PRES    WAVE   SWELL
                       AIR SEA DIR/SP/G            HT/PER HT/PER
                 (UTC) (F)     (DEG/KT/KT) (MB)    (FT/S) (FT/S)
44066 TX TWR #4  1300   74 73  230/ 10/ 12 1016.7F   4/ 6   3/ 6
CAPE MAY NJ      1300   79 80  230/  4/  4 1016.9R
LEWES DE         1300   79 76  260/  8/ 13 1017.0S
15NM E FENWICK I 1300   76 74              1017.3S   3/ 5
OCEAN-CITY-INLET 1300   79 78  270/  8/  9 1017.1S
WACHAPREAGUE VA  1300   81 81  260/  7/ 12 1018.0S
THOMAS POINT MD  1300   76 78  230/  4/  5 1017.5F
GOOSES REEF MD   1300   77     220/  6/  8 1017.0F
COVE POINT MD    1300   75     180/  5/  5 1016.5F
SOLOMONS ISLAND  1300      80                N/A
BISHOPS HEAD MD  1300   78 79  290/  6/ 10 1016.9F
PINEY POINT MD   1300          220/  8/  9   N/A
POTOMAC MD       1300   78     250/  8/ 10 1016.7F
CAMBRIDGE MD     1300   76 79  200/  3/  5 1016.5F
LEWISETTA VA     1300   78 79  240/  6/  8 1016.8F
RAPPAHANNOCK LGT 1300          230/  9/ 11 1018.7S
STINGRAY PT      1300   78     280/  8/ 12   N/A
YORK RVR RNG VA  1300   80     250/ 11/ 13 1017.6S
YORKTOWN VA      1300   79 80  240/  9/ 12 1017.8F
JAMESTOWN VA     1300   77     260/  6/  8   N/A
DOMINION TERM VA 1300   79     240/  9/ 11 1018.6F
KIPTOPEKE VA     1300      82  250/ 12/ 15   N/A
CHES BAY BRIDGE  1300   79 79  220/ 12/ 14 1017.8F
CAPE HENRY VA    1300   80     240/  9/ 13 1017.3S
CHESAPEAKE LGHT  1200   78     230/ 15/ 17 1019.2R
WILLOUBY STN VA  1300   78     240/ 14/ 16 1017.0F
S CRANEY ISL VA  1300          220/  5/  7 1018.3F
CAPE HENRY BUOY  1300      79                N/A     3/ 8
1ST LANDING BUOY 1300   80     240/ 12/ 14 1018.2S
CAPE CHARLES BUO 1300      78                N/A     3/ 9   2/ 9
OFFSHORE WE BUOY 1300      78                N/A     3/ 8   2/ 8
64NM E OF VA BCH 1300   78 77  220/ 10/ 12 1018.9S   3/ 8   2/ 8
DUCK PIER NC     1300   79 75  230/ 15/ 17 1018.8F
44056 DUCK FRF   1300                        N/A     2/ 9
OREGON INLET NC  1300   80 82  230/ 11/ 13 1019.8R
HATTERAS NC      1300   82 83  230/  9/ 12 1020.5S
DIAMOND SHLS NC  1300   82     230/ 12/ 14 1020.2R   3/ 8   2/ 8
CAPE LOOKOUT NC  1200   81     220/  5/  7 1020.0S
$$


USA.gov is the U.S. government's official web portal to all federal, state and local government web resources and services.